Flag for Norway Weather past 2 weeks in Lillestrøm, Norway

Now
85 °F

Pleasantly warm.


Feels Like: 84 °F
Forecast: 61 / 85 °F
Wind: 2 mph from Southwest

Location: Oslo-Blindern

Current Time: Jul 22, 2014 at 9:58:22 PM

Latest Report: Jul 22, 2014 at 6:00 PM


Visibility: N/A

Pressure: 30.21 "Hg

Humidity: 37%

Dew point: 56 °F

Location of LillestrømLocation

Historic Weather in Lillestrøm — Graph

°F

Lillestrøm temperature yesterday

Maximum temperature yesterday: 84 °F (at 5:00 PM)
Minimum temperature yesterday: 60 °F (at 5:00 AM)
Average temperature yesterday: 74 °F

Past Weeks' High & Low Weather Summary

 TemperatureHumidityPressure
High88 °F (Jul 22, 4:00 PM)97% (Jul 16, 2:00 AM)30.24 "Hg (Jul 16, 2:00 AM)
Low52 °F (Jul 18, 5:00 AM)28% (Jul 12, 8:00 PM)29.66 "Hg (Jul 13, 10:00 PM)
Average70 °F65%30.01 "Hg
* Reported Jul 7 8:00 PM — Jul 22 6:00 PM, Lillestrøm, Weather by CustomWeather, © 2014

Note: Actual official high and low records may vary slightly from our data, if they occured in-between our weather recording intervals... More about our weather records

Advertising

Lillestrøm weather history for previous 24 hours

 ConditionsComfort  
Time TempWeatherWind HumidityBarometerVisibility
6:00 PM
Jul 22
85 °FPleasantly warm.2 mph37%30.21 "HgN/A
5:00 PM84 °FScattered clouds.3 mph39%30.21 "Hg43 mi
4:00 PM88 °FHot.1 mph36%30.21 "HgN/A
3:00 PM85 °FPleasantly warm.2 mph39%30.22 "HgN/A
2:00 PM87 °FScattered clouds.2 mph38%30.23 "Hg47 mi
1:00 PM86 °FPleasantly warm.2 mph35%30.24 "HgN/A
12:00 PM85 °FPleasantly warm.2 mph37%30.24 "HgN/A
11:00 AM82 °FPassing clouds.2 mph44%30.24 "Hg47 mi
10:00 AM78 °FWarm.1 mph48%30.24 "HgN/A
9:00 AM76 °FMild.2 mph54%30.24 "HgN/A
8:00 AM71 °FPassing clouds.1 mph61%30.24 "Hg47 mi
7:00 AM67 °FMild.2 mph70%30.23 "HgN/A
6:00 AM64 °FMild.2 mph75%30.22 "HgN/A
5:00 AM65 °FScattered clouds.2 mph72%30.22 "Hg40 mi
4:00 AM67 °FMild.2 mph70%30.21 "HgN/A
3:00 AM66 °FMild.2 mph69%30.20 "HgN/A
2:00 AM66 °FPassing clouds.2 mph71%30.19 "Hg40 mi
1:00 AM67 °FMild.2 mph68%30.18 "HgN/A
12:00 AM69 °FMild.2 mph64%30.16 "HgN/A
11:00 PM
Jul 21
71 °FPassing clouds.1 mph59%30.14 "Hg40 mi
10:00 PM75 °FMild.2 mph52%30.13 "HgN/A
9:00 PM80 °FWarm.2 mph41%30.11 "HgN/A
Weather by CustomWeather, © 2014

See weather overviewHow to use our weather pages